sat.trackr.live / text

‹ back to catalog

BB 1

NORAD 56171 · 2023-050K

PAYLOAD ACTIVE UNKNOWN

§ Identity

Operator
Country
US
Launch date
2023-04-02
Launch site
AFWTR
Launch vehicle
Mass (kg)
RCS (m²)

External: N2YO · Heavens-Above · Gunter

§ Orbital elements

Epoch: 2026-05-25T03:17:20.101344Z

Period
104.15 min
Inclination
81.0011°
Eccentricity
0.0017025
Mean motion
13.82654757 rev/d
Perigee alt
942.0 km
Apogee alt
967.0 km
Semi-major
7,332.6 km
B*
1.1764e-4
RAAN
102.6744°
Arg perigee
11.6933°
Mean anomaly
348.4614°
Rev number
15,835

§ Raw data

BB 11 56171U 23050K   26145.13703821  .00000139  00000+0  11764-3 0  99972 56171  81.0011 102.6744 0017025  11.6933 348.4614 13.82654757158355

JSON: /api/v1/satellites/56171 · /tle

For live sub-satellite position, see the globe view (requires WebGL).

§ Visibility from observer

Set your observer location to see the next 7 days of passes ≥ 10°. The values pass through the URL so the page stays shareable.

No JS? Fill the form by hand. The geolocation button needs JavaScript.